Miscellaneous Local Product
Issued by NWS Hastings, NE

Home | Current Version | Previous Version | Graphics & Text | Print | Product List | Glossary On
Versions: 1 2 3 4 5 6 7 8 9 10 11 12 13 14 15 16 17 18 19 20 21 22 23 24 25 26 27 28 29 30 31 32 33 34 35 36 37 38 39 40 41 42 43 44 45 46 47 48 49 50
000
AXUS43 KGID 161002
MISGRI

GID CWA HOURLY WEATHER ROUNDUP
NATIONAL WEATHER SERVICE HASTINGS NE
500 AM CDT WED AUG 16 2017

NOTE: "FAIR" INDICATES FEW OR NO CLOUDS BELOW 12,000 FEET WITH NO
SIGNIFICANT WEATHER AND/OR OBSTRUCTIONS TO VISIBILITY.

...SOUTH CENTRAL NEBRASKA...

CITY           SKY/WX    TMP DP  RH WIND       PRES   REMARKS
GRAND ISLAND   LGT RAIN  64  64 100 N15       29.80F
HASTINGS       LGT RAIN  64  61  90 N14       29.82F
KEARNEY        CLOUDY    63  61  93 N3        29.84R
ORD            LGT RAIN  63  60  90 N5        29.77F
YORK           CLOUDY    68  66  94 CALM      29.78S
AURORA         TSTM      63  63 100 NW14G24   29.75F
LEXINGTON      LGT RAIN  62  60  91 SE8       29.83R
HOLDREGE       RAIN      62  59  92 NE13      29.85F
HEBRON         CLOUDY    74  72  94 CALM      29.75F

...NEBRASKA PANHANDLE...

CITY           SKY/WX    TMP DP  RH WIND       PRES   REMARKS
CHADRON        CLOUDY    62  57  83 CALM      29.95F
ALLIANCE       CLOUDY    60  59  96 NW6       29.96R
SCOTTSBLUFF    CLOUDY    59  55  87 NW8       29.99S
SIDNEY         CLOUDY    59  57  93 N6        30.00S

...WESTERN AND NORTH CENTRAL NEBRASKA...

CITY           SKY/WX    TMP DP  RH WIND       PRES   REMARKS
VALENTINE      CLOUDY    63  58  83 NW9       29.85S
AINSWORTH      CLOUDY    62  62 100 NE7       29.81F
ONEILL         LGT RAIN  63  63 100 CALM      29.81F
BROKEN BOW     RAIN      62  61  96 NE12      29.75F
IMPERIAL       CLOUDY    61  58  90 NW7       29.94R
NORTH PLATTE   CLOUDY    61  58  90 CALM      29.85F
MCCOOK         LGT RAIN  62  61  96 N5        29.84S

...EASTERN NEBRASKA...

CITY           SKY/WX    TMP DP  RH WIND       PRES   REMARKS
NORFOLK        LGT RAIN  65  63  93 E3        29.80F
SO SIOUX CITY  LGT RAIN  68  67  96 N5        29.83F
TEKAMAH        CLOUDY    68  65  90 N6        29.81F
COLUMBUS       LGT RAIN  67  66  97 E6        29.76F
ALBION         CLOUDY    66  65  97 NW12      29.82F
OMAHA EPPLEY   CLOUDY    73  67  81 SE7       29.79F
OFFUTT AFB     CLOUDY    72  68  88 E8        29.78F
MILLARD        MOCLDY    73  70  92 CALM      29.78F
LINCOLN        TSTM      73  70  90 SE10      29.76F
NEBRASKA CITY  CLOUDY    73  73 100 SE10      29.79F
BEATRICE       CLOUDY    75  72  89 SE9       29.76F
FALLS CITY     CLEAR     73  70  90 S9        29.77F

...NORTHERN KANSAS...

CITY           SKY/WX    TMP DP  RH WIND       PRES   REMARKS
GOODLAND       CLOUDY    60  59  96 N15       29.93F
HILL CITY      CLOUDY    63  61  93 NE13G23   29.80F
NORTON         LGT RAIN  61  55  82 N18G25    29.78
PHILLIPSBURG   RAIN      63  63 100 N20G25    29.82F
SMITH CENTER   CLOUDY    61  61 100 NW15G25   29.87S
HAYS           HVY RAIN  62  61  96 N30G39    29.82R FOG
RUSSELL        HVY RAIN  64  61  90 NW52G67   29.80R VSB 3/4
CONCORDIA      CLEAR     73  72  96 S13       29.73F
SALINA         CLEAR     74  70  87 SE10      29.74F
TOPEKA         CLOUDY    76  72  87 VRB6      29.79F



USA.gov is the U.S. government's official web portal to all federal, state and local government web resources and services.